Location: Seattle
(47.6064°N, 122.3308°W)
Time: 01:54:44
(UTC-08:00)

A-11 Canister half - Pass Details

Date: 26 November 2020
Orbit: 1524 x 1684 km, 47.3° (Epoch: 21 January)

Event Time Altitude Azimuth Distance (km) Brightness Sun altitude
Rises 09:51:02 0° 272° (W) 4,917 11.3 15.7°
Reaches altitude 10° 09:54:13 10° 272° (W) 3,915 10.9 16.0°
Maximum altitude 10:04:17 88° 186° (S) 1,631 9.5 16.8°
Drops below altitude 10° 10:14:00 10° 97° (E) 3,789 11.6 17.5°
Sets 10:17:02 0° 98° (E) 4,753 12.0 17.7°
